Location: Syke, Rochdale
(53.6121°N, 2.1588°W)
Time: 22:57:24
(UTC+02:00)

Amateur Radio Satellites - All Passes

Search period start: 27 June 2017 22:27
Search period end: 28 June 2017 22:27
Location: Syke, Rochdale, 53.6121°N, 2.1588°W

Satellite Date Start Highest point End Downlink Frequencies (MHz)
Time Altitude Azimuth
O/OREOS (USA 219) 27 Jun 22:34:24 22:38:30 34° 109° (ESE) 22:42:36 437.305
SO-50 27 Jun 22:48:32 22:53:04 66° 41° (NE) 22:57:34 436.795
M-CUBED/EXP-1 PRIME 27 Jun 22:51:16 22:51:46 10° 94° (E) 22:52:17 437.505
DELFI C3 27 Jun 22:53:07 22:57:02 78° 257° (WSW) 23:00:59 145.870
BEESAT 2 27 Jun 23:03:19 23:07:05 40° 125° (SE) 23:10:55 435.950
NO-84 27 Jun 23:03:33 23:06:58 27° 139° (SE) 23:10:35 435.350 FM
ESTCUBE 1 27 Jun 23:08:20 23:11:29 19° 56° (NE) 23:14:39 437.505/2401.250
UNISAT 6 27 Jun 23:14:44 23:18:18 21° 90° (E) 23:21:48 437.425
AO-73 27 Jun 23:17:33 23:20:24 16° 273° (W) 23:23:17 145.935
AO-85 27 Jun 23:19:06 23:22:59 51° 322° (NW) 23:26:51 145.980
EO-88 27 Jun 23:19:21 23:22:58 57° 259° (WSW) 23:26:37 145.990 - 145.960
PRISM 27 Jun 23:20:19 23:23:23 20° 92° (E) 23:26:26 437.425
PCSat 27 Jun 23:32:24 23:35:42 17° 254° (WSW) 23:39:01 145.827
LO-87 27 Jun 23:34:51 23:38:08 35° 67° (ENE) 23:41:28 145.935 - 145.965
BEESAT 3 27 Jun 23:36:37 23:40:35 55° 321° (NW) 23:44:35 437.485
Oscar 11 27 Jun 23:43:56 23:45:09 11° 276° (W) 23:46:22 .
FO-29 27 Jun 23:45:46 23:53:28 58° 99° (E) 00:01:10 435.910
RS-15 27 Jun 23:54:37 00:06:59 83° 317° (NW) 00:19:25 29.354- 29.394
YUBILEINY 27 Jun 23:55:07 00:03:58 85° 282° (WNW) 00:12:54 435.215
STRAND 1 28 Jun 00:05:16 00:08:05 15° 312° (NW) 00:10:53 437.568
TIGRISAT 28 Jun 00:07:54 00:12:32 54° 100° (E) 00:17:01 435.000
O/OREOS (USA 219) 28 Jun 00:13:34 00:17:52 41° 309° (NW) 00:22:10 437.305
AIST 2D 28 Jun 00:21:01 00:22:03 11° 86° (E) 00:23:06 435.315
M-CUBED/EXP-1 PRIME 28 Jun 00:23:04 00:26:44 80° 111° (ESE) 00:30:41 437.505
SO-50 28 Jun 00:29:27 00:33:13 26° 241° (WSW) 00:36:59 436.795
VELOX 1 28 Jun 00:35:26 00:39:16 31° 62° (ENE) 00:43:09 145.980
50 SAT 28 Jun 00:37:52 00:39:30 13° 57° (ENE) 00:41:10 437.505
SPROUT 28 Jun 00:38:55 00:42:46 33° 64° (ENE) 00:46:39 437.525
NO-84 28 Jun 00:40:03 00:44:11 81° 159° (SSE) 00:48:32 435.350 FM
BEESAT 2 28 Jun 00:41:03 00:44:53 41° 326° (NW) 00:48:46 435.950
ESTCUBE 1 28 Jun 00:43:19 00:47:49 77° 256° (WSW) 00:52:21 437.505/2401.250
DX 1 28 Jun 00:48:37 00:51:34 18° 55° (NE) 00:54:31 434.975-435.025
UNISAT 6 28 Jun 00:50:47 00:55:26 63° 290° (WNW) 00:59:58 437.425
PRISM 28 Jun 00:54:57 00:58:59 55° 291° (WNW) 01:03:00 437.425
UKube-1 28 Jun 01:01:08 01:03:55 17° 55° (NE) 01:06:43 .
AO-85 28 Jun 01:01:16 01:04:11 19° 345° (NNW) 01:07:08 145.980
LO-87 28 Jun 01:08:44 01:11:40 24° 266° (W) 01:14:39 145.935 - 145.965
POLYITAN 1 28 Jun 01:11:33 01:14:51 21° 91° (E) 01:18:07 437.675
BEESAT 3 28 Jun 01:15:51 01:18:57 21° 343° (NNW) 01:22:03 437.485
QB50P2 28 Jun 01:22:16 01:25:59 28° 94° (E) 01:29:40 145.880/145.840
FO-29 28 Jun 01:31:04 01:38:19 46° 300° (WNW) 01:45:40 435.910
TIGRISAT 28 Jun 01:45:02 01:48:56 26° 300° (WNW) 01:52:45 435.000
EO-79 28 Jun 01:45:42 01:49:48 41° 98° (E) 01:53:51 145.935-145.965
AIST 2D 28 Jun 01:52:16 01:55:47 78° 286° (WNW) 01:59:17 435.315
YUBILEINY 28 Jun 01:55:00 02:02:15 28° 307° (NW) 02:09:35 435.215
O/OREOS (USA 219) 28 Jun 01:56:31 01:58:32 13° 333° (NNW) 02:00:32 437.305
DUCHIFAT 1 28 Jun 01:56:50 02:00:56 44° 99° (E) 02:04:59 145.980
M-CUBED/EXP-1 PRIME 28 Jun 01:58:35 02:00:49 16° 309° (NW) 02:03:07 437.505
NANOSAT C BR1 28 Jun 02:06:37 02:10:52 59° 102° (ESE) 02:15:04 145.865
50 SAT 28 Jun 02:08:28 02:11:50 72° 257° (WSW) 02:15:14 437.505
RS-15 28 Jun 02:09:13 02:21:16 52° 348° (NNW) 02:33:07 29.354- 29.394
VELOX 1 28 Jun 02:11:30 02:15:38 41° 262° (W) 02:19:49 145.980
SPROUT 28 Jun 02:14:42 02:18:39 35° 264° (W) 02:22:38 437.525
NO-84 28 Jun 02:17:40 02:21:55 72° 1° (N) 02:26:19 435.350 FM
BEESAT 2 28 Jun 02:20:41 02:23:36 19° 348° (NNW) 02:26:33 435.950
DX 1 28 Jun 02:22:55 02:27:15 78° 255° (WSW) 02:31:38 434.975-435.025
ESTCUBE 1 28 Jun 02:23:46 02:25:25 12° 276° (W) 02:27:04 437.505/2401.250
UNISAT 6 28 Jun 02:29:07 02:31:16 13° 310° (NW) 02:33:24 437.425
MOZHAYETS 4 28 Jun 02:33:04 02:34:58 12° 50° (NE) 02:36:51
PRISM 28 Jun 02:33:18 02:33:24 10° 311° (NW) 02:33:30 437.425
UKube-1 28 Jun 02:35:06 02:39:24 84° 255° (WSW) 02:43:45 .
AO-85 28 Jun 02:43:09 02:45:54 18° 10° (N) 02:48:43 145.980
POLYITAN 1 28 Jun 02:46:45 02:50:58 55° 291° (WNW) 02:55:08 437.675
BEESAT 3 28 Jun 02:55:05 02:57:50 17° 7° (N) 03:00:36 437.485
BUGSAT 1 28 Jun 02:57:11 03:01:25 58° 102° (ESE) 03:05:35 437.445
QB50P2 28 Jun 02:57:52 03:01:55 41° 293° (WNW) 03:05:56 145.880/145.840
Gurwin Techsat 1B 28 Jun 02:58:31 03:02:23 20° 88° (E) 03:06:14 435.225
ITUPSAT 1 28 Jun 03:12:14 03:16:32 33° 62° (ENE) 03:20:52 437.325
FO-29 28 Jun 03:17:12 03:21:38 17° 322° (NW) 03:26:08 435.910
BEESAT 28 Jun 03:20:24 03:24:50 39° 64° (ENE) 03:29:17 436.000
EO-79 28 Jun 03:21:44 03:25:27 29° 297° (WNW) 03:29:08 145.935-145.965
Oscar 19 28 Jun 03:24:41 03:29:36 44° 98° (E) 03:34:29 437.125/150
AIST 2D 28 Jun 03:27:48 03:28:21 10° 305° (NW) 03:28:55 435.315
DUCHIFAT 1 28 Jun 03:32:49 03:36:26 27° 298° (WNW) 03:40:03 145.980
NANOSAT C BR1 28 Jun 03:42:58 03:46:14 22° 301° (WNW) 03:49:30 145.865
KKS-1 28 Jun 03:50:21 03:51:08 10° 47° (NE) 03:51:55 437.445
NO-84 28 Jun 03:55:19 03:59:39 75° 202° (SSW) 04:04:02 435.350 FM
BEESAT 2 28 Jun 03:59:45 04:02:42 19° 12° (NNE) 04:05:39 435.950
YUBILEINY 28 Jun 04:02:08 04:03:18 10° 339° (NNW) 04:04:27 435.215
DX 1 28 Jun 04:02:44 04:04:12 11° 275° (W) 04:05:41 434.975-435.025
MOZHAYETS 4 28 Jun 04:06:41 04:11:14 60° 70° (ENE) 04:15:49
ITAMSAT 1 28 Jun 04:09:19 04:11:21 12° 83° (E) 04:13:24 435.822/435.867
UKube-1 28 Jun 04:14:23 04:16:09 12° 274° (W) 04:17:56 .
AO-85 28 Jun 04:23:32 04:27:17 38° 33° (NNE) 04:31:12 145.980
RS-15 28 Jun 04:24:18 04:36:29 57° 21° (NNE) 04:48:14 29.354- 29.394
AO-7 28 Jun 04:24:53 04:31:14 23° 87° (E) 04:37:32 .
POLYITAN 1 28 Jun 04:24:54 04:25:52 11° 311° (NW) 04:26:48 437.675
BEESAT 3 28 Jun 04:32:50 04:36:31 32° 30° (NNE) 04:40:09 437.485
BUGSAT 1 28 Jun 04:33:08 04:36:27 22° 301° (WNW) 04:39:44 437.445
Gurwin Techsat 1B 28 Jun 04:37:38 04:42:59 80° 288° (WNW) 04:48:19 435.225
ITUPSAT 1 28 Jun 04:49:42 04:54:17 43° 261° (W) 04:58:54 437.325
CUBESAT XI-V 28 Jun 04:54:33 04:58:51 39° 66° (ENE) 05:03:09 437.345
BEESAT 28 Jun 04:58:14 05:02:39 36° 263° (W) 05:07:07 436.000
Oscar 19 28 Jun 05:04:13 05:08:52 36° 298° (WNW) 05:13:30 437.125/150
O/OREOS (USA 219) 28 Jun 05:20:16 05:21:52 12° 25° (NNE) 05:23:28 437.305
KKS-1 28 Jun 05:22:26 05:26:44 50° 68° (ENE) 05:31:04 437.445
NO-84 28 Jun 05:33:13 05:36:51 26° 222° (SW) 05:40:26 435.350 FM
BEESAT 2 28 Jun 05:37:30 05:41:24 42° 35° (NE) 05:45:17 435.950
MOZHAYETS 4 28 Jun 05:45:09 05:48:47 22° 269° (W) 05:52:25
STARS 28 Jun 05:45:12 05:49:19 40° 65° (ENE) 05:53:28 437.465
ITAMSAT 1 28 Jun 05:46:37 05:51:52 66° 103° (ESE) 05:57:04 435.822/435.867
AO-85 28 Jun 06:03:53 06:07:46 45° 234° (SW) 06:11:50 145.980
BEESAT 3 28 Jun 06:10:22 06:14:21 59° 231° (SW) 06:18:16 437.485
AO-7 28 Jun 06:16:53 06:25:20 81° 110° (ESE) 06:33:44 .
Gurwin Techsat 1B 28 Jun 06:18:36 06:22:13 19° 309° (NW) 06:25:47 435.225
STRAND 1 28 Jun 06:31:49 06:34:40 15° 48° (NE) 06:37:32 437.568
CUBESAT XI-V 28 Jun 06:32:07 06:36:18 33° 265° (W) 06:40:30 437.345
RS-15 28 Jun 06:37:45 06:50:04 82° 231° (SW) 07:01:47 29.354- 29.394
O/OREOS (USA 219) 28 Jun 06:58:27 07:02:38 36° 49° (NE) 07:06:47 437.305
KKS-1 28 Jun 06:59:55 07:03:33 25° 267° (W) 07:07:15 437.445
XW-2D 28 Jun 07:07:06 07:08:27 12° 86° (E) 07:09:48 145.860 - 145.880
CUTE-I 28 Jun 07:09:33 07:12:38 15° 85° (E) 07:15:41 437.470
BEESAT 2 28 Jun 07:15:21 07:19:11 39° 236° (SW) 07:22:58 435.950
XW-2B 28 Jun 07:15:40 07:17:39 14° 88° (E) 07:19:36 145.730 - 145.750
LilacSat-2 28 Jun 07:17:50 07:20:08 15° 89° (E) 07:22:25 437.200
STARS 28 Jun 07:21:51 07:25:46 30° 265° (W) 07:29:42 437.465
ITAMSAT 1 28 Jun 07:26:39 07:30:58 26° 304° (WNW) 07:35:16 435.822/435.867
XW-2C 28 Jun 07:30:41 07:33:28 19° 91° (E) 07:36:14 145.795 - 145.815
HO-68 28 Jun 07:37:19 07:39:10 11° 77° (ENE) 07:41:02 435.675
KAITUO 1B 28 Jun 07:38:22 07:41:00 18° 90° (E) 07:43:38 145.475/437.950
DOVE 4 28 Jun 07:38:32 07:43:19 53° 99° (E) 07:48:20 437.250
YUBILEINY 28 Jun 08:00:47 08:07:32 23° 48° (NE) 08:14:14 435.215
STRAND 1 28 Jun 08:07:52 08:12:57 64° 69° (ENE) 08:18:05 437.568
NUDT-PHONESAT 28 Jun 08:09:43 08:13:11 35° 97° (E) 08:16:36 437.300
AO-7 28 Jun 08:10:07 08:17:31 36° 313° (NW) 08:24:52 .
FO-29 28 Jun 08:23:11 08:27:17 17° 38° (NE) 08:31:38 435.910
XW-2F 28 Jun 08:33:31 08:37:18 79° 104° (ESE) 08:41:02 145.980 - 146.000
O/OREOS (USA 219) 28 Jun 08:37:55 08:42:06 39° 250° (WSW) 08:46:15 437.305
XW-2D 28 Jun 08:39:26 08:43:13 84° 287° (WNW) 08:46:59 145.860 - 145.880
SEEDS 28 Jun 08:40:14 08:42:27 14° 87° (E) 08:44:41 437.485
CUTE-I 28 Jun 08:48:09 08:53:35 79° 106° (ESE) 08:58:58 437.470
XW-2B 28 Jun 08:48:32 08:52:19 71° 287° (WNW) 08:56:03 145.730 - 145.750
RS-15 28 Jun 08:51:03 09:00:48 30° 257° (WSW) 09:10:14 29.354- 29.394
LilacSat-2 28 Jun 08:51:03 08:54:51 63° 287° (WNW) 08:58:34 437.200
CUTE 1.7 + AOD 2 28 Jun 09:01:48 09:05:36 31° 95° (E) 09:09:21 437.475
XW-2C 28 Jun 09:04:16 09:07:56 48° 290° (WNW) 09:11:34 145.795 - 145.815
ISS 28 Jun 09:11:17 09:12:21 11° 140° (SE) 09:13:26 437.550
KAITUO 1B 28 Jun 09:11:41 09:15:19 49° 290° (WNW) 09:18:53 145.475/437.950
DOVE 4 28 Jun 09:16:38 09:20:49 30° 298° (WNW) 09:25:11 437.250
HO-68 28 Jun 09:21:47 09:28:46 50° 100° (E) 09:35:42 435.675
AAUSAT CUBESAT 2 28 Jun 09:22:37 09:25:28 18° 89° (E) 09:28:19 437.432
AO-73 28 Jun 09:22:57 09:24:07 11° 83° (E) 09:25:18 145.935
TIGRISAT 28 Jun 09:37:34 09:40:48 19° 55° (NE) 09:44:03 435.000
CUBEBUG 2 28 Jun 09:40:39 09:45:12 43° 97° (E) 09:49:36 437.445
M-CUBED/EXP-1 PRIME 28 Jun 09:41:23 09:44:21 34° 60° (ENE) 09:47:24 437.505
NUDT-PHONESAT 28 Jun 09:43:52 09:46:58 25° 296° (WNW) 09:50:02 437.300
Oscar 11 28 Jun 09:45:54 09:48:09 14° 86° (E) 09:50:24 .
STRAND 1 28 Jun 09:48:26 09:52:35 24° 269° (W) 09:56:46 437.568
XW-2A 28 Jun 09:50:39 09:54:05 71° 103° (ESE) 09:57:28 145.665 - 145.685
Tancredo 1 28 Jun 09:53:38 09:56:17 27° 155° (SSE) 09:58:56 437.200
YUBILEINY 28 Jun 09:57:21 10:06:15 71° 75° (ENE) 10:15:02 435.215
ZACube-1 28 Jun 09:57:45 10:01:27 24° 91° (E) 10:05:03 437.345
AO-7 28 Jun 10:03:21 10:08:00 16° 338° (NNW) 10:12:40 .
FO-29 28 Jun 10:04:26 10:10:40 50° 62° (ENE) 10:17:42 435.910
UWE-3 28 Jun 10:08:38 10:13:08 48° 98° (E) 10:17:30 435.000/436.395/437.385
XW-2F 28 Jun 10:08:51 10:10:55 14° 303° (WNW) 10:12:59 145.980 - 146.000
SEEDS 28 Jun 10:14:33 10:18:44 81° 286° (WNW) 10:22:54 437.485
XW-2D 28 Jun 10:15:13 10:16:48 12° 305° (NW) 10:18:22 145.860 - 145.880
PRISM 28 Jun 10:15:15 10:18:54 33° 64° (ENE) 10:22:35 437.425
UNISAT 6 28 Jun 10:19:04 10:23:23 39° 65° (ENE) 10:27:46 437.425
XW-2B 28 Jun 10:24:54 10:25:48 11° 307° (NW) 10:26:42 145.730 - 145.750
CUTE-I 28 Jun 10:28:55 10:33:07 24° 306° (NW) 10:37:18 437.470
CUTE 1.7 + AOD 2 28 Jun 10:37:37 10:41:29 35° 294° (WNW) 10:45:18 437.475
ISS 28 Jun 10:45:06 10:48:09 36° 159° (SSE) 10:51:13 437.550
AO-73 28 Jun 10:56:44 11:01:14 73° 102° (ESE) 11:05:34 145.935
AAUSAT CUBESAT 2 28 Jun 10:57:15 11:01:20 61° 289° (WNW) 11:05:23 437.432
AIST 2D 28 Jun 11:01:22 11:03:03 13° 58° (ENE) 11:04:45 435.315
HO-68 28 Jun 11:09:43 11:16:32 47° 301° (WNW) 11:23:18 435.675
EO-79 28 Jun 11:11:06 11:13:01 13° 52° (NE) 11:14:57 145.935-145.965
TIGRISAT 28 Jun 11:12:14 11:16:54 85° 254° (WSW) 11:21:39 435.000
M-CUBED/EXP-1 PRIME 28 Jun 11:16:23 11:18:58 21° 259° (W) 11:21:35 437.505
CUBEBUG 2 28 Jun 11:17:29 11:21:43 32° 297° (WNW) 11:25:49 437.445
Oscar 11 28 Jun 11:20:35 11:24:56 86° 286° (WNW) 11:29:14 .
DUCHIFAT 1 28 Jun 11:21:32 11:23:33 13° 52° (NE) 11:25:33 145.980
XW-2A 28 Jun 11:24:38 11:26:23 13° 302° (WNW) 11:28:05 145.665 - 145.685
Tancredo 1 28 Jun 11:28:33 11:31:33 58° 175° (S) 11:34:33 437.200
NANOSAT C BR1 28 Jun 11:30:47 11:33:30 17° 55° (NE) 11:36:13 145.865
ZACube-1 28 Jun 11:33:38 11:38:01 50° 291° (WNW) 11:42:15 437.345
UWE-3 28 Jun 11:45:26 11:49:23 28° 299° (WNW) 11:53:13 435.000/436.395/437.385
FO-29 28 Jun 11:49:45 11:55:52 44° 266° (W) 12:02:46 435.910
PRISM 28 Jun 11:50:33 11:54:12 32° 264° (W) 11:57:53 437.425
SEEDS 28 Jun 11:51:41 11:53:46 14° 306° (NW) 11:55:52 437.485
AO-7 28 Jun 11:54:11 11:57:31 13° 6° (N) 12:00:52 .
YUBILEINY 28 Jun 11:54:46 12:02:28 35° 279° (W) 12:10:07 435.215
UNISAT 6 28 Jun 11:55:52 12:00:08 35° 264° (W) 12:04:29 437.425
DELFI C3 28 Jun 11:58:13 12:02:10 71° 103° (ESE) 12:06:07 145.870
POLYITAN 1 28 Jun 12:09:43 12:13:38 36° 65° (ENE) 12:17:34 437.675
EO-88 28 Jun 12:15:14 12:18:55 76° 103° (ESE) 12:22:33 145.990 - 145.960
BUGSAT 1 28 Jun 12:19:27 12:21:58 16° 55° (NE) 12:24:30 437.445
QB50P2 28 Jun 12:20:30 12:24:36 47° 67° (ENE) 12:28:44 145.880/145.840
ISS 28 Jun 12:21:08 12:24:23 62° 179° (S) 12:27:40 437.550
LO-87 28 Jun 12:29:01 12:31:41 19° 91° (E) 12:34:20 145.935 - 145.965
ESTCUBE 1 28 Jun 12:30:21 12:32:57 15° 87° (E) 12:35:32 437.505/2401.250
AIST 2D 28 Jun 12:32:12 12:35:46 80° 256° (WSW) 12:39:20 435.315
AO-73 28 Jun 12:33:48 12:36:59 19° 303° (WNW) 12:40:07 145.935
AAUSAT CUBESAT 2 28 Jun 12:35:01 12:35:59 11° 309° (NW) 12:36:58 437.432
PCSat 28 Jun 12:36:21 12:40:44 26° 111° (ESE) 12:45:09 145.827
EO-79 28 Jun 12:43:47 12:48:02 70° 71° (ENE) 12:52:19 145.935-145.965
Gurwin Techsat 1B 28 Jun 12:49:11 12:51:49 14° 46° (NE) 12:54:28 435.225
TIGRISAT 28 Jun 12:51:51 12:54:20 14° 275° (W) 12:56:50 435.000
DUCHIFAT 1 28 Jun 12:54:16 12:58:30 73° 72° (ENE) 13:02:46 145.980
Oscar 11 28 Jun 12:57:58 13:00:27 15° 306° (NW) 13:02:56 .
HO-68 28 Jun 12:58:32 13:02:40 17° 325° (NW) 13:06:48 435.675
Tancredo 1 28 Jun 13:04:00 13:06:56 45° 195° (SSW) 13:09:52 437.200
NANOSAT C BR1 28 Jun 13:04:24 13:08:40 83° 255° (WSW) 13:12:59 145.865
Oscar 19 28 Jun 13:10:06 13:14:11 24° 56° (NE) 13:18:16 437.125/150
ZACube-1 28 Jun 13:12:43 13:13:16 10° 312° (NW) 13:13:49 437.345
DELFI C3 28 Jun 13:33:59 13:36:30 17° 302° (WNW) 13:39:03 145.870
AO-7 28 Jun 13:41:24 13:47:20 22° 33° (NNE) 13:53:18 .
POLYITAN 1 28 Jun 13:45:33 13:49:26 33° 264° (W) 13:53:22 437.675
EO-88 28 Jun 13:50:07 13:52:07 14° 303° (WNW) 13:54:06 145.990 - 145.960
BUGSAT 1 28 Jun 13:52:33 13:56:44 89° 254° (WSW) 14:01:00 437.445
SPROUT 28 Jun 13:53:41 13:57:18 26° 93° (E) 14:00:55 437.525
VELOX 1 28 Jun 13:54:54 13:58:32 24° 93° (E) 14:02:10 145.980
QB50P2 28 Jun 13:57:04 14:00:36 25° 267° (W) 14:04:11 145.880/145.840
ISS 28 Jun 13:57:32 14:00:40 41° 198° (SSW) 14:03:48 437.550
LO-87 28 Jun 14:01:51 14:05:22 46° 290° (WNW) 14:08:52 145.935 - 145.965
ESTCUBE 1 28 Jun 14:05:52 14:10:24 85° 283° (WNW) 14:14:53 437.505/2401.250
DX 1 28 Jun 14:06:20 14:08:02 12° 86° (E) 14:09:44 434.975-435.025
UKube-1 28 Jun 14:18:02 14:18:58 11° 85° (E) 14:19:54 .
PCSat 28 Jun 14:18:14 14:23:40 76° 312° (NW) 14:29:09 145.827
EO-79 28 Jun 14:21:28 14:24:17 17° 271° (W) 14:27:07 145.935-145.965
Gurwin Techsat 1B 28 Jun 14:25:33 14:30:45 56° 67° (ENE) 14:35:58 435.225
DUCHIFAT 1 28 Jun 14:32:00 14:34:40 16° 272° (W) 14:37:22 145.980
Tancredo 1 28 Jun 14:40:02 14:42:01 16° 213° (SSW) 14:43:59 437.200
NANOSAT C BR1 28 Jun 14:43:25 14:45:06 12° 275° (W) 14:46:47 145.865
Oscar 19 28 Jun 14:47:57 14:53:06 71° 256° (WSW) 14:58:16 437.125/150
SO-50 28 Jun 14:49:40 14:53:05 21° 116° (ESE) 14:56:30 436.795
50 SAT 28 Jun 14:57:12 15:00:30 43° 100° (E) 15:03:46 437.505
SPROUT 28 Jun 15:29:16 15:33:25 46° 292° (WNW) 15:37:32 437.525
AO-7 28 Jun 15:30:28 15:38:32 57° 57° (ENE) 15:46:39 .
BUGSAT 1 28 Jun 15:30:53 15:32:46 13° 274° (W) 15:34:40 437.445
VELOX 1 28 Jun 15:30:57 15:35:16 51° 292° (WNW) 15:39:34 145.980
ITAMSAT 1 28 Jun 15:32:20 15:37:04 36° 61° (ENE) 15:41:50 435.822/435.867
ISS 28 Jun 15:34:47 15:36:33 14° 217° (SW) 15:38:17 437.550
DX 1 28 Jun 15:40:34 15:44:58 80° 104° (ESE) 15:49:21 434.975-435.025
ESTCUBE 1 28 Jun 15:43:52 15:46:33 16° 306° (NW) 15:49:14 437.505/2401.250
UKube-1 28 Jun 15:51:27 15:55:48 72° 105° (ESE) 16:00:07 .
PCSat 28 Jun 16:03:17 16:07:55 28° 336° (NNW) 16:12:35 145.827
Gurwin Techsat 1B 28 Jun 16:06:28 16:11:02 29° 267° (W) 16:15:37 435.225
SO-50 28 Jun 16:28:32 16:33:05 79° 317° (NW) 16:37:38 436.795
50 SAT 28 Jun 16:30:34 16:33:03 19° 298° (WNW) 16:35:32 437.505
Oscar 19 28 Jun 16:31:08 16:33:23 13° 276° (W) 16:35:38 437.125/150
ITUPSAT 1 28 Jun 16:43:28 16:47:44 30° 95° (E) 16:51:57 437.325
BEESAT 28 Jun 16:51:17 16:55:43 36° 97° (E) 17:00:06 436.000
CUTE-I 28 Jun 17:01:28 17:03:13 12° 42° (NE) 17:04:58 437.470
VELOX 1 28 Jun 17:10:01 17:10:46 10° 312° (NW) 17:11:29 145.980
ITAMSAT 1 28 Jun 17:11:29 17:16:28 45° 261° (W) 17:21:30 435.822/435.867
DOVE 4 28 Jun 17:14:55 17:17:42 17° 54° (NE) 17:20:34 437.250
DX 1 28 Jun 17:17:42 17:20:39 18° 305° (NW) 17:23:36 434.975-435.025
AO-7 28 Jun 17:23:33 17:31:31 48° 260° (W) 17:39:35 .
UKube-1 28 Jun 17:28:19 17:31:23 19° 304° (NW) 17:34:27 .
MOZHAYETS 4 28 Jun 17:32:06 17:36:40 57° 101° (E) 17:41:10
XW-2F 28 Jun 17:48:17 17:50:15 14° 56° (ENE) 17:52:13 145.980 - 146.000
PCSat 28 Jun 17:49:06 17:53:04 20° 1° (N) 17:57:01 145.827
XW-2D 28 Jun 17:53:59 17:56:24 16° 58° (ENE) 17:58:49 145.860 - 145.880
XW-2B 28 Jun 18:02:44 18:05:26 19° 60° (ENE) 18:08:08 145.730 - 145.750
LilacSat-2 28 Jun 18:05:33 18:08:27 21° 61° (ENE) 18:11:22 437.200
SO-50 28 Jun 18:10:16 18:14:10 27° 339° (NNW) 18:18:04 436.795
HO-68 28 Jun 18:11:54 18:17:11 23° 43° (NE) 18:22:29 435.675
XW-2C 28 Jun 18:17:48 18:20:58 25° 63° (ENE) 18:24:09 145.795 - 145.815
ITUPSAT 1 28 Jun 18:21:08 18:25:44 46° 295° (WNW) 18:30:17 437.325
CUBESAT XI-V 28 Jun 18:21:24 18:25:45 39° 97° (E) 18:30:02 437.345
KAITUO 1B 28 Jun 18:24:14 18:27:16 23° 63° (ENE) 18:30:17 145.475/437.950
BEESAT 28 Jun 18:29:05 18:33:32 39° 296° (WNW) 18:37:58 436.000
CUTE-I 28 Jun 18:36:59 18:42:02 45° 64° (ENE) 18:47:08 437.470
KKS-1 28 Jun 18:43:09 18:47:25 40° 98° (E) 18:51:39 437.445
DOVE 4 28 Jun 18:50:34 18:54:48 83° 254° (WSW) 18:59:18 437.250
NUDT-PHONESAT 28 Jun 18:54:40 18:58:14 43° 69° (ENE) 19:01:49 437.300
STARS 28 Jun 19:04:05 19:08:03 31° 95° (E) 19:12:00 437.465
MOZHAYETS 4 28 Jun 19:09:48 19:13:32 25° 301° (WNW) 19:17:12
CUBEBUG 2 28 Jun 19:10:28 19:13:06 15° 52° (NE) 19:15:47 437.445
XW-2F 28 Jun 19:20:00 19:23:51 86° 256° (WSW) 19:27:41 145.980 - 146.000
AO-7 28 Jun 19:24:30 19:26:38 11° 284° (WNW) 19:28:46 .
XW-2D 28 Jun 19:26:20 19:30:09 70° 257° (WSW) 19:33:59 145.860 - 145.880
PCSat 28 Jun 19:33:22 19:38:09 30° 27° (NNE) 19:42:55 145.827
XW-2B 28 Jun 19:35:29 19:39:17 58° 259° (W) 19:43:05 145.730 - 145.750
UWE-3 28 Jun 19:37:09 19:40:00 16° 54° (NE) 19:42:51 435.000/436.395/437.385
SEEDS 28 Jun 19:37:29 19:40:47 23° 61° (ENE) 19:44:05 437.485
LilacSat-2 28 Jun 19:38:41 19:42:28 51° 260° (W) 19:46:14 437.200
XW-2C 28 Jun 19:51:24 19:55:01 39° 262° (W) 19:58:39 145.795 - 145.815
SO-50 28 Jun 19:52:30 19:55:57 21° 3° (N) 19:59:23 436.795
HO-68 28 Jun 19:56:41 20:03:51 70° 66° (ENE) 20:11:01 435.675
KAITUO 1B 28 Jun 19:57:29 20:01:05 42° 261° (W) 20:04:42 145.475/437.950
CUBESAT XI-V 28 Jun 19:58:56 20:03:05 34° 296° (WNW) 20:07:13 437.345
CUTE 1.7 + AOD 2 28 Jun 20:00:10 20:04:16 50° 69° (ENE) 20:08:22 437.475
ITUPSAT 1 28 Jun 20:01:36 20:02:28 10° 315° (NW) 20:03:21 437.325
STRAND 1 28 Jun 20:13:18 20:15:51 14° 84° (E) 20:18:24 437.568
CUTE-I 28 Jun 20:17:17 20:22:12 37° 264° (W) 20:27:11 437.470
AAUSAT CUBESAT 2 28 Jun 20:18:27 20:21:57 27° 63° (ENE) 20:25:27 437.432
KKS-1 28 Jun 20:19:55 20:23:54 32° 298° (WNW) 20:27:52 437.445
AO-73 28 Jun 20:23:07 20:26:32 21° 58° (ENE) 20:29:57 145.935
XW-2A 28 Jun 20:27:31 20:30:57 67° 72° (ENE) 20:34:24 145.665 - 145.685
NUDT-PHONESAT 28 Jun 20:29:23 20:32:20 21° 268° (W) 20:35:17 437.300
DOVE 4 28 Jun 20:31:45 20:33:22 12° 277° (W) 20:35:00 437.250
STARS 28 Jun 20:40:19 20:44:30 40° 295° (WNW) 20:48:39 437.465
CUBEBUG 2 28 Jun 20:44:16 20:48:56 73° 72° (ENE) 20:53:42 437.445
Oscar 11 28 Jun 20:46:12 20:49:42 24° 61° (ENE) 20:53:13 .
XW-2F 28 Jun 20:57:47 20:58:36 11° 275° (W) 20:59:26 145.980 - 146.000
ZACube-1 28 Jun 20:58:59 21:03:18 42° 66° (ENE) 21:07:38 437.345
RS-15 28 Jun 21:09:22 21:19:44 35° 106° (ESE) 21:30:10 29.354- 29.394
UWE-3 28 Jun 21:11:06 21:15:45 81° 74° (ENE) 21:20:28 435.000/436.395/437.385
SEEDS 28 Jun 21:12:06 21:16:12 52° 260° (W) 21:20:19 437.485
YUBILEINY 28 Jun 21:14:21 21:19:31 17° 69° (ENE) 21:24:39 435.215
PCSat 28 Jun 21:16:46 21:22:16 86° 47° (NE) 21:27:43 145.827
DELFI C3 28 Jun 21:16:52 21:19:02 14° 56° (ENE) 21:21:13 145.870
O/OREOS (USA 219) 28 Jun 21:21:12 21:21:54 10° 96° (E) 21:22:35 437.305
EO-88 28 Jun 21:27:45 21:29:14 12° 56° (NE) 21:30:42 145.990 - 145.960
SO-50 28 Jun 21:33:27 21:37:35 34° 27° (NNE) 21:41:44 436.795
CUTE 1.7 + AOD 2 28 Jun 21:36:58 21:40:22 23° 268° (W) 21:43:46 437.475
BEESAT 3 28 Jun 21:42:58 21:46:22 27° 120° (ESE) 21:49:50 437.485
HO-68 28 Jun 21:45:49 21:52:08 32° 267° (W) 21:58:30 435.675
STRAND 1 28 Jun 21:50:46 21:55:58 75° 105° (ESE) 22:01:06 437.568
AAUSAT CUBESAT 2 28 Jun 21:53:24 21:57:17 40° 262° (W) 22:01:12 437.432
AO-73 28 Jun 21:57:46 22:02:20 70° 257° (WSW) 22:06:56 145.935
XW-2A 28 Jun 22:02:34 22:04:07 12° 272° (W) 22:05:40 145.665 - 145.685
AO-85 28 Jun 22:03:51 22:07:47 59° 129° (SE) 22:11:40 145.980
